This is the latest recevied weather packets stored in our database for station/object DL6MAA-11. If no packets are shown the sender has not sent any weather packets the latest 10 day(s).
| Time | Temp. | Humidity | Pressure | Rain* | Wind** | Luminosity | Snow |
|---|---|---|---|---|---|---|---|
| 1777219950 | 18.89° C | 34% | 1018.2 hPa | 0 mm | - | 202 W/m² | - |
| 1777219650 | 18.89° C | 34% | 1018.2 hPa | 0 mm | - | 338 W/m² | - |
| 1777219357 | 18.89° C | 36% | 1018.2 hPa | 0 mm | - | 353 W/m² | - |
| 1777219059 | 17.78° C | 38% | 1017.5 hPa | 0 mm | - | 332 W/m² | - |
| 1777218763 | 17.22° C | 37% | 1017.5 hPa | 0 mm | - | 193 W/m² | - |
| 1777218444 | 17.22° C | 38% | 1017.5 hPa | 0 mm | - | 130 W/m² | - |
| 1777218155 | 17.22° C | 36% | 1018.2 hPa | 0 mm | - | 121 W/m² | - |
| 1777217853 | 17.78° C | 36% | 1018.2 hPa | 0 mm | - | 128 W/m² | - |
| 1777217558 | 18.33° C | 36% | 1018.2 hPa | 0 mm | - | 169 W/m² | - |
| 1777217244 | 18.33° C | 37% | 1018.2 hPa | 0 mm | - | 171 W/m² | - |
| 1777216945 | 18.33° C | 36% | 1018.2 hPa | 0 mm | - | 209 W/m² | - |
| 1777216650 | 18.33° C | 36% | 1018.2 hPa | 0 mm | - | 316 W/m² | - |
| 1777216359 | 18.33° C | 36% | 1018.1 hPa | 0 mm | - | 274 W/m² | - |
| 1777216043 | 18.33° C | 35% | 1018.1 hPa | 0 mm | - | 183 W/m² | - |
| 1777215749 | 18.33° C | 34% | 1018.1 hPa | 0 mm | - | 178 W/m² | - |
| 1777215451 | 18.33° C | 37% | 1018 hPa | 0 mm | - | 229 W/m² | - |
| 1777215156 | 18.33° C | 37% | 1018 hPa | 0 mm | - | 279 W/m² | - |
| 1777214856 | 18.33° C | 38% | 1018 hPa | 0 mm | - | 204 W/m² | - |
| 1777214554 | 18.33° C | 38% | 1018 hPa | 0 mm | - | 186 W/m² | - |
| 1777214246 | 17.78° C | 38% | 1018 hPa | 0 mm | - | 155 W/m² | - |
| 1777213949 | 18.33° C | 39% | 1018 hPa | 0 mm | - | 148 W/m² | - |
| 1777213650 | 18.33° C | 38% | 1017.9 hPa | 0 mm | - | 155 W/m² | - |
| 1777213351 | 18.89° C | 36% | 1017.9 hPa | 0 mm | - | 163 W/m² | - |
| 1777213060 | 19.44° C | 37% | 1017.9 hPa | 0 mm | - | 316 W/m² | - |
| 1777212763 | 18.89° C | 36% | 1017.9 hPa | 0 mm | - | 267 W/m² | - |
* Rain since midnight (hover to see other rain measurements)
** Current wind speed in m/s (hover to see current wind gust speed)